Home > Time Zones > World Clock > Weather > Iran > Tabriz > Past weeks

Flag for Iran Weather past 2 weeks in Tabriz, Iran

Now
57 °F

Passing clouds.


Feels Like: 56 °F
Forecast: 46 / 67 °F
Wind: 7 mph from West

Location: Tabriz Airport

Current Time: Apr 18, 2015 at 9:18:16 PM

Latest Report: Apr 18, 2015 at 9:00 PM


Visibility: N/A

Pressure: 30.01 "Hg

Humidity: 41%

Dew point: 34 °F

Location of TabrizLocation

Historic Weather in Tabriz — Graph

°F

Tabriz temperature yesterday

Maximum temperature yesterday: 63 °F (at 4:00 PM)
Minimum temperature yesterday: 46 °F (at 4:30 AM)
Average temperature yesterday: 54 °F

Past Weeks' High & Low Weather Summary

 TemperatureHumidityPressure
High77 °F (Apr 9, 3:30 PM)100% (Apr 11, 8:00 AM)30.21 "Hg (Apr 11, 8:00 AM)
Low34 °F (Apr 15, 5:00 AM)16% (Apr 7, 5:30 PM)29.74 "Hg (Apr 4, 4:00 PM)
Average54 °F50%30.01 "Hg
* Reported Apr 3 8:30 PM — Apr 18 8:30 PM, Tabriz, Weather by CustomWeather, © 2015

Note: Actual official high and low records may vary slightly from our data, if they occured in-between our weather recording intervals... More about our weather records

Advertising

Tabriz weather history for previous 24 hours

 ConditionsComfort  
Time TempWeatherWind HumidityBarometerVisibility
8:30 PM
Sat, Apr 18
61 °FPassing clouds.7 mph34%30.01 "HgN/A
8:00 PM63 °FPassing clouds.7 mph30%30.01 "HgN/A
7:30 PM64 °FPassing clouds.14 mph30%30.01 "HgN/A
7:00 PM66 °FPassing clouds.18 mph19%30.01 "HgN/A
6:30 PM66 °FPassing clouds.18 mph19%30.01 "HgN/A
6:00 PM66 °FPassing clouds.12 mph19%30.01 "HgN/A
5:30 PM66 °FPassing clouds.12 mph19%30.01 "HgN/A
5:00 PM68 °FPassing clouds.14 mph20%30.04 "HgN/A
4:30 PM66 °FPassing clouds.18 mph24%30.04 "HgN/A
4:00 PM66 °FPassing clouds.14 mph24%30.07 "HgN/A
3:30 PM66 °FPassing clouds.14 mph24%30.07 "HgN/A
3:00 PM64 °FPassing clouds.14 mph30%30.09 "HgN/A
2:30 PM64 °FPassing clouds.14 mph30%30.09 "HgN/A
2:00 PM63 °FPassing clouds.14 mph37%30.09 "HgN/A
1:30 PM63 °FPassing clouds.12 mph37%30.09 "HgN/A
1:00 PM61 °FPassing clouds.12 mph42%30.12 "Hg5 mi
12:30 PM61 °FPassing clouds.9 mph42%30.12 "Hg5 mi
12:00 PM59 °FPassing clouds.9 mph45%30.15 "Hg4 mi
11:30 AMN/A5 mphN/AN/AN/A
11:00 AM57 °FPassing clouds.5 mph48%30.15 "Hg5 mi
10:30 AM57 °FPassing clouds.7 mph48%30.15 "Hg5 mi
10:00 AM55 °FSunny.5 mph47%30.15 "Hg4 mi
9:30 AM54 °FSunny.5 mph58%30.15 "Hg4 mi
9:00 AM52 °FSunny.5 mph62%30.15 "Hg4 mi
8:30 AM48 °FSunny.7 mph66%30.15 "Hg5 mi
8:00 AM45 °FClear.7 mph76%30.15 "Hg5 mi
7:00 AM43 °FClear.7 mph76%30.15 "Hg10 mi
6:30 AM43 °FClear.7 mph76%30.15 "Hg10 mi
6:00 AM43 °FClear.5 mph76%30.15 "Hg10 mi
5:30 AM43 °FClear.7 mph76%30.15 "Hg10 mi
5:00 AM43 °FClear.5 mph76%30.15 "Hg10 mi
4:30 AM45 °FClear.5 mph71%30.15 "Hg10 mi
4:00 AM45 °FClear.5 mph71%30.15 "Hg5 mi
3:30 AM45 °FClear.9 mph71%30.15 "Hg5 mi
3:00 AM46 °FClear.7 mph71%30.15 "Hg5 mi
2:30 AM46 °FClear.9 mph71%30.15 "Hg5 mi
1:30 AM46 °FClear.9 mph71%30.15 "Hg4 mi
1:00 AM48 °FClear.5 mph66%30.15 "Hg4 mi
12:30 AM46 °FClear.7 mph76%30.15 "Hg4 mi
12:00 AM48 °FClear.5 mph66%30.15 "Hg4 mi
11:30 PM
Fri, Apr 17
52 °FClear.2 mph54%30.15 "Hg4 mi
11:00 PM50 °FClear.2 mph62%30.15 "Hg4 mi
10:30 PM48 °FClear.5 mph66%30.15 "Hg4 mi
10:00 PM50 °FClear.2 mph67%30.15 "Hg3 mi
9:30 PM52 °FHaze.No wind54%30.15 "Hg4 mi
9:00 PM54 °FHaze.2 mph58%30.15 "Hg3 mi
Weather by CustomWeather, © 2015

See weather overviewHow to use our weather pages